Other Surface Observations
Issued by NWS Charleston, SC

Home | Current Version | Previous Version | Text Only | Print | Product List | Glossary On
Versions: 1 2 3 4 5 6 7 8 9 10 11 12 13 14 15 16 17 18 19 20 21 22 23 24 25 26 27 28 29 30 31 32 33 34 35 36 37 38 39 40 41 42 43 44 45 46 47 48 49 50
000
SXUS52 KCHS 191239
OSOCHS

MARINE OBSERVATIONS
NATIONAL WEATHER SERVICE CHARLESTON SC
800 AM EDT TUE SEP 19 2017

...DOWNTOWN CHARLESTON AND HARBOR...

CITY           SKY/WX    TMP DP  RH WIND       PRES   REMARKS
WATERFRONT PRK   N/A     74  71  90 VRB3      29.82R

...LAKE MOULTRIE...

CITY           SKY/WX    TMP DP  RH WIND       PRES   REMARKS
PINOPOLIS        N/A     72  70  94 NE6       29.90R

...LAKE AND SUPPLEMENTAL COASTAL OBSERVATIONS...

STATION/POSITION TIME  TEMP    WIND        PRES    WAVE   SWELL
                       AIR SEA DIR/SP/G            HT/PER HT/PER/DIR
                 (UTC) (F)     (DEG/KT/KT) (MB)    (FT/S) (FT/S/D)
FORT PULASKI     1200   75 79  300/  7/  9 1015.9
SAPELO ISLAND    1200   74        CALM     1016.0
WINYAH BAY       1145   69     320/  5     1015.0R
LAKE MURRAY      1220   71      40/  1/  3 1015.6R
ACE BASIN NERRS  1145   69        CALM     1016.0R


...C-MAN AND BUOY OBSERVATIONS...

STATION/POSITION TIME  TEMP    WIND        PRES    WAVE   SWELL
                       AIR SEA DIR/SP/G            HT/PER HT/PER/DIR
                 (UTC) (F)     (DEG/KT/KT) (MB)    (FT/S) (FT/S/D)
BUOY 41004       1210   78 82  340/  8/ 12 1014.3
BUOY 41008       1150   78 80  270/  6/  8 1015.1R   4/11   3/ 70/11
FOLLY BEACH CMAN 1200   74     350/  4/  6 1015.9R
CAPERS NS BUOY   1208   74 79   10/  6/ 10 1014.9R
FRIPP NS BUOY    1208   76     320/  8/ 10 1022.6R
5E ST. MARYS GA  1200      80                N/A     4/12   2/ 80/12


STATION/POSITION TIME  TEMP    WIND        PRES    WAVE   SWELL
                       AIR SEA DIR/SP/G            HT/PER HT/PER/DIR
                 (UTC) (F)     (DEG/KT/KT) (MB)    (FT/S) (FT/S/D)
FRYING PAN BUOY  1210   74 81  330/ 14/ 17 1013.4
BUOY 41025       1150   73 77  340/ 27/ 33 1008.0R  10/11   8/ 70/11
CAPE LOOKOUT NC  1200   71     320/ 16/ 19 1011.7R
BUOY 41002       1150   80 80  310/ 14/ 16 1011.9R  10/10  10/ 30/10
BUOY 41010       1210      84   10/  6/ 10 1014.2
ST AUGUSTINE FL  1200   80 81   80/  6/  7 1015.5R

$$




USA.gov is the U.S. government's official web portal to all federal, state and local government web resources and services.